Flag for U.S.A. Weather past 2 weeks in Laredo, Texas, U.S.A.

Now
82 °F

Broken clouds.


Feels Like: 83 °F
Forecast: 68 / 85 °F
Wind: 6 mph from Southeast

Location: Laredo International Airport

Current Time: Oct 22, 2014 at 7:40:20 PM

Latest Report: Oct 22, 2014 at 6:56 PM


Visibility: 10 mi

Pressure: 29.98 "Hg

Humidity: 53%

Dew point: 63 °F

Location of LaredoLocation

Historic Weather in Laredo — Graph

°F

Laredo temperature yesterday

Maximum temperature yesterday: 82 °F (at 12:56 PM)
Minimum temperature yesterday: 70 °F (at 1:56 AM)
Average temperature yesterday: 74 °F

Past Weeks' High & Low Weather Summary

 TemperatureHumidityPressure
High95 °F (Oct 9, 3:56 PM)100% (Oct 18, 3:56 AM)30.22 "Hg (Oct 18, 3:56 AM)
Low55 °F (Oct 15, 4:56 AM)18% (Oct 14, 3:56 PM)29.68 "Hg (Oct 13, 4:56 AM)
Average78 °F63%29.94 "Hg
* Reported Oct 7 5:56 PM — Oct 22 5:56 PM, Laredo, Weather by CustomWeather, © 2014

Note: Actual official high and low records may vary slightly from our data, if they occured in-between our weather recording intervals... More about our weather records

Advertising

Laredo weather history for previous 24 hours

 ConditionsComfort  
Time TempWeatherWind HumidityBarometerVisibility
5:56 PM
Oct 22
85 °FPartly sunny.9 mph46%29.96 "Hg10 mi
4:56 PM86 °FPartly sunny.12 mph44%29.96 "Hg10 mi
3:56 PM86 °FBroken clouds.6 mph44%29.96 "Hg10 mi
2:56 PM85 °FBroken clouds.No wind46%29.98 "Hg10 mi
1:56 PM85 °FScattered clouds.7 mph48%30.00 "Hg10 mi
12:56 PM83 °FPartly sunny.8 mph53%30.03 "Hg10 mi
11:56 AM82 °FSunny.10 mph58%30.05 "Hg10 mi
10:56 AM78 °FSunny.12 mph69%30.07 "Hg10 mi
9:56 AM74 °FSunny.10 mph76%30.06 "Hg10 mi
8:56 AM69 °FSunny.7 mph90%30.05 "Hg10 mi
7:56 AM68 °FClear.9 mph96%30.02 "Hg9 mi
6:56 AM69 °FOvercast.7 mph97%30.01 "Hg10 mi
5:56 AM70 °FOvercast.6 mph90%29.99 "Hg10 mi
4:56 AM70 °FOvercast.6 mph93%29.97 "Hg10 mi
3:56 AM70 °FPassing clouds.6 mph96%29.98 "Hg10 mi
2:56 AM71 °FOvercast.7 mph93%29.98 "Hg10 mi
1:56 AM71 °FOvercast.6 mph100%29.98 "Hg10 mi
12:56 AM72 °FLight rain. Passing clouds.7 mph96%29.98 "Hg9 mi
11:56 PM
Oct 21
73 °FLight rain. Clear.6 mph93%30.00 "Hg10 mi
10:56 PM74 °FClear.10 mph88%30.00 "Hg10 mi
9:56 PM73 °FLight rain. Clear.6 mph93%29.99 "Hg10 mi
8:56 PM73 °FClear.No wind93%29.97 "Hg10 mi
7:56 PM74 °FOvercast.7 mph88%29.96 "Hg10 mi
Weather by CustomWeather, © 2014

See weather overviewHow to use our weather pages